| time (UTC) | temp F | wind direction | speed MPH | gust MPH | rain 1hr in | rain 24hr in | rain mn in | humidity % | barometer mb |
| 20260505021558 | 49 | 35 | 14.0 | 19.0 | 0.00 | 0.00 | 0.00 | 32 | 1015.3 |
| 20260505020054 | 50 | 5 | 13.0 | 22.0 | 0.00 | 0.00 | 0.00 | 28 | 1015.1 |
| 20260505014614 | 51 | 360 | 16.0 | 24.0 | 0.00 | 0.00 | 0.00 | 26 | 1014.9 |
| 20260505013053 | 52 | 5 | 15.0 | 22.0 | 0.00 | 0.00 | 0.00 | 24 | 1014.8 |
| 20260505011606 | 53 | 350 | 12.0 | 21.0 | 0.00 | 0.00 | 0.00 | 23 | 1014.5 |
| 20260505010054 | 53 | 332 | 13.0 | 28.0 | 0.00 | 0.00 | 0.00 | 23 | 1014.5 |
| 20260505004555 | 54 | 316 | 16.0 | 28.0 | 0.00 | 0.00 | 0.00 | 22 | 1014.5 |
| 20260505003055 | 54 | 360 | 17.0 | 25.0 | 0.00 | 0.00 | 0.00 | 22 | 1014.5 |
| 20260505001557 | 54 | 344 | 17.0 | 25.0 | 0.00 | 0.00 | 0.00 | 23 | 1014.5 |
| 20260505000107 | 55 | 321 | 20.0 | 28.0 | 0.00 | 0.00 | 0.00 | 23 | 1014.5 |
| 20260504234559 | 55 | 346 | 17.0 | 27.0 | 0.00 | 0.00 | 0.00 | 24 | 1014.6 |
| 20260504233108 | 55 | 348 | 17.0 | 30.0 | 0.00 | 0.00 | 0.00 | 24 | 1014.7 |
| 20260504231601 | 55 | 317 | 17.0 | 24.0 | 0.00 | 0.00 | 0.00 | 23 | 1014.6 |
| 20260504230055 | 54 | 323 | 19.0 | 29.0 | 0.00 | 0.00 | 0.00 | 25 | 1014.7 |
| 20260504224558 | 56 | 318 | 18.0 | 28.0 | 0.00 | 0.00 | 0.00 | 27 | 1014.5 |
| 20260504223127 | 55 | 340 | 15.0 | 28.0 | 0.00 | 0.00 | 0.00 | 30 | 1014.5 |
| 20260504221556 | 55 | 319 | 16.0 | 23.0 | 0.00 | 0.00 | 0.00 | 30 | 1014.5 |
| 20260504220057 | 53 | 323 | 15.0 | 27.0 | 0.00 | 0.00 | 0.00 | 31 | 1014.6 |
| 20260504214555 | 53 | 330 | 20.0 | 27.0 | 0.00 | 0.00 | 0.00 | 32 | 1014.7 |
| 20260504213102 | 53 | 337 | 17.0 | 27.0 | 0.00 | 0.00 | 0.00 | 32 | 1014.8 |
| 20260504211548 | 54 | 11 | 16.0 | 27.0 | 0.00 | 0.00 | 0.00 | 33 | 1014.9 |
| 20260504210056 | 53 | 330 | 21.0 | 33.0 | 0.00 | 0.00 | 0.00 | 33 | 1014.9 |
| 20260504204554 | 55 | 360 | 20.0 | 30.0 | 0.00 | 0.00 | 0.00 | 32 | 1014.8 |
| 20260504203108 | 55 | 352 | 20.0 | 26.0 | 0.00 | 0.00 | 0.00 | 31 | 1014.6 |
| 20260504201559 | 55 | 342 | 19.0 | 29.0 | 0.00 | 0.00 | 0.00 | 32 | 1014.6 |
| 20260504200056 | 54 | 324 | 19.0 | 32.0 | 0.00 | 0.00 | 0.00 | 34 | 1014.6 |
| 20260504194550 | 53 | 336 | 14.0 | 27.0 | 0.00 | 0.00 | 0.00 | 35 | 1014.5 |
| 20260504193104 | 53 | 329 | 16.0 | 24.0 | 0.00 | 0.00 | 0.00 | 35 | 1014.7 |
| 20260504191559 | 55 | 338 | 19.0 | 27.0 | 0.00 | 0.00 | 0.00 | 34 | 1014.8 |
| 20260504190053 | 54 | 322 | 16.0 | 28.0 | 0.00 | 0.00 | 0.00 | 35 | 1014.8 |
| 20260504184558 | 53 | 339 | 14.0 | 23.0 | 0.00 | 0.00 | 0.00 | 36 | 1014.7 |
| 20260504183053 | 54 | 319 | 14.0 | 21.0 | 0.00 | 0.00 | 0.00 | 35 | 1014.7 |
| 20260504181600 | 54 | 352 | 17.0 | 26.0 | 0.00 | 0.00 | 0.00 | 36 | 1014.7 |
| 20260504180054 | 54 | 344 | 14.0 | 23.0 | 0.00 | 0.00 | 0.00 | 36 | 1014.8 |
| 20260504174549 | 53 | 311 | 17.0 | 25.0 | 0.00 | 0.00 | 0.00 | 38 | 1014.9 |
| 20260504173052 | 52 | 309 | 14.0 | 23.0 | 0.00 | 0.00 | 0.00 | 41 | 1015.0 |
| 20260504171555 | 52 | 329 | 12.0 | 22.0 | 0.00 | 0.00 | 0.00 | 41 | 1014.9 |
| 20260504081551 | 48 | 32 | 16.0 | 25.0 | 0.00 | 0.00 | 0.00 | 54 | 1014.6 |
| 20260504044604 | 57 | 37 | 18.0 | 23.0 | 0.00 | 0.00 | 0.00 | 38 | 1009.3 |
| 20260504043056 | 57 | 39 | 14.0 | 18.0 | 0.00 | 0.00 | 0.00 | 37 | 1009.0 |
| 20260504041552 | 58 | 38 | 12.0 | 19.0 | 0.00 | 0.00 | 0.00 | 36 | 1008.9 |
| 20260504040105 | 58 | 42 | 12.0 | 20.0 | 0.00 | 0.00 | 0.00 | 35 | 1008.6 |
| 20260504034611 | 59 | 41 | 16.0 | 19.0 | 0.00 | 0.00 | 0.00 | 35 | 1008.2 |
| 20260504033056 | 59 | 42 | 14.0 | 22.0 | 0.00 | 0.00 | 0.00 | 35 | 1007.9 |
| 20260504031551 | 60 | 40 | 14.0 | 21.0 | 0.00 | 0.00 | 0.00 | 34 | 1007.6 |
| 20260504030118 | 62 | 37 | 15.0 | 20.0 | 0.00 | 0.00 | 0.00 | 32 | 1007.1 |
| 20260504024555 | 62 | 42 | 10.0 | 14.0 | 0.00 | 0.00 | 0.00 | 28 | 1006.9 |
| 20260504023057 | 63 | 22 | 4.0 | 8.0 | 0.00 | 0.00 | 0.00 | 24 | 1006.7 |